timestamp,wind_dir_avg,wind_spd_avg,wind_spd_max_dir,wind_spd_gust,battery_voltage,lat,long
2023-03-09 00:04:00+00:00,29.0,14.33,23.0,16.09,12.33,47.59359,-54.27349
2023-03-09 00:14:01+00:00,34.0,13.43,37.0,14.85,12.33,47.59359,-54.27349
2023-03-09 00:24:01+00:00,31.0,13.66,31.0,14.97,12.33,47.59359,-54.27349
2023-03-09 00:34:01+00:00,36.0,13.09,32.0,14.51,12.33,47.59359,-54.27349
2023-03-09 00:44:01+00:00,34.0,13.6,31.0,15.27,12.33,47.59359,-54.27349
2023-03-09 00:54:01+00:00,30.0,13.97,38.0,14.95,12.33,47.59359,-54.27349
2023-03-09 01:04:01+00:00,31.0,13.85,31.0,15.58,12.33,47.59359,-54.27349
2023-03-09 01:14:01+00:00,32.0,13.37,33.0,15.21,12.25,47.59359,-54.27349
2023-03-09 01:24:01+00:00,36.0,12.91,32.0,14.29,12.25,47.59359,-54.27349
2023-03-09 01:34:01+00:00,32.0,13.4,31.0,14.98,12.25,47.59359,-54.27349
2023-03-09 01:44:01+00:00,34.0,13.11,32.0,14.52,12.25,47.59359,-54.27349
2023-03-09 01:54:01+00:00,31.0,13.91,32.0,15.15,12.25,47.59359,-54.27349
2023-03-09 02:04:01+00:00,32.0,13.79,29.0,15.52,12.25,47.59359,-54.27349
2023-03-09 02:14:01+00:00,30.0,14.04,30.0,15.2,12.25,47.59359,-54.27349
2023-03-09 02:24:01+00:00,34.0,12.66,28.0,14.54,12.25,47.59359,-54.27349
2023-03-09 02:34:01+00:00,34.0,12.89,32.0,14.41,12.25,47.59359,-54.27349
2023-03-09 02:44:01+00:00,28.0,14.21,30.0,16.79,12.25,47.59359,-54.27349
2023-03-09 02:54:01+00:00,29.0,14.57,36.0,17.59,12.25,47.59359,-54.27349
2023-03-09 03:04:01+00:00,30.0,14.6,40.0,16.88,12.25,47.59359,-54.27349
2023-03-09 03:14:00+00:00,28.0,14.59,26.0,16.21,12.25,47.59359,-54.27349
2023-03-09 03:24:00+00:00,31.0,14.23,31.0,16.79,12.25,47.59359,-54.27349
2023-03-09 03:34:00+00:00,27.0,15.07,26.0,16.38,12.25,47.59359,-54.27349
2023-03-09 03:44:00+00:00,31.0,14.37,24.0,16.33,12.25,47.59359,-54.27349
2023-03-09 03:54:00+00:00,28.0,16.23,29.0,20.0,12.25,47.59359,-54.27349
2023-03-09 04:04:00+00:00,31.0,14.61,38.0,17.13,12.25,47.59359,-54.27349
2023-03-09 04:14:01+00:00,32.0,14.2,27.0,16.37,12.25,47.59359,-54.27349
2023-03-09 04:24:01+00:00,29.0,15.48,36.0,18.12,12.25,47.59359,-54.27349
2023-03-09 04:34:01+00:00,30.0,15.07,29.0,18.41,12.25,47.59359,-54.27349
2023-03-09 04:44:01+00:00,30.0,15.58,28.0,18.04,12.25,47.59359,-54.27349
2023-03-09 04:54:01+00:00,28.0,16.9,35.0,19.08,12.25,47.59359,-54.27349
2023-03-09 05:04:01+00:00,28.0,16.73,22.0,21.11,12.25,47.59359,-54.27349
2023-03-09 05:14:00+00:00,32.0,16.7,41.0,19.83,12.17,47.59359,-54.27349
2023-03-09 05:24:00+00:00,33.0,18.43,27.0,21.15,12.17,47.59359,-54.27349
2023-03-09 05:34:00+00:00,31.0,15.37,38.0,18.24,12.17,47.59359,-54.27349
2023-03-09 05:44:00+00:00,29.0,16.36,32.0,18.56,12.17,47.59359,-54.27349
2023-03-09 05:54:00+00:00,32.0,15.48,33.0,20.24,12.17,47.59359,-54.27349
2023-03-09 06:04:00+00:00,29.0,17.22,31.0,19.33,12.17,47.59359,-54.27349
2023-03-09 06:14:00+00:00,32.0,15.96,34.0,19.65,12.17,47.59359,-54.27349
2023-03-09 06:24:00+00:00,29.0,15.86,31.0,19.0,12.17,47.59359,-54.27349
2023-03-09 06:34:00+00:00,31.0,16.02,34.0,18.59,12.17,47.59359,-54.27349
2023-03-09 06:44:00+00:00,31.0,18.28,37.0,23.23,12.17,47.59359,-54.27349
2023-03-09 06:54:00+00:00,30.0,15.84,31.0,19.2,12.17,47.59359,-54.27349
2023-03-09 07:04:00+00:00,28.0,17.1,31.0,21.11,12.17,47.59359,-54.27349
2023-03-09 07:14:00+00:00,29.0,16.72,30.0,19.73,12.17,47.59359,-54.27349
2023-03-09 07:24:00+00:00,29.0,16.58,30.0,20.83,12.17,47.59359,-54.27349
2023-03-09 07:34:00+00:00,35.0,18.86,39.0,23.42,12.17,47.59359,-54.27349
2023-03-09 07:44:00+00:00,31.0,16.58,34.0,19.63,12.17,47.59359,-54.27349
2023-03-09 07:54:00+00:00,32.0,19.81,38.0,24.52,12.17,47.59359,-54.27349
2023-03-09 08:04:00+00:00,31.0,17.23,32.0,20.64,12.17,47.59359,-54.27349
2023-03-09 08:14:00+00:00,30.0,17.59,38.0,22.67,12.17,47.59359,-54.27349
2023-03-09 08:24:00+00:00,29.0,19.04,33.0,23.88,12.17,47.59359,-54.27349
2023-03-09 08:34:00+00:00,32.0,16.77,38.0,20.65,12.17,47.59359,-54.27349
2023-03-09 08:44:00+00:00,31.0,16.3,32.0,20.55,12.17,47.59359,-54.27349
2023-03-09 08:54:00+00:00,27.0,19.75,34.0,23.02,12.17,47.59359,-54.27349
2023-03-09 09:04:00+00:00,33.0,18.03,39.0,23.71,12.17,47.59359,-54.27349
2023-03-09 09:14:00+00:00,29.0,18.83,34.0,22.97,12.09,47.59359,-54.27349
2023-03-09 09:24:00+00:00,27.0,18.77,31.0,22.7,12.09,47.59359,-54.27349
2023-03-09 09:34:00+00:00,32.0,17.59,37.0,19.99,12.09,47.59359,-54.27349
2023-03-09 09:44:00+00:00,30.0,17.69,30.0,20.1,12.09,47.59359,-54.27349
2023-03-09 09:54:00+00:00,31.0,16.3,46.0,21.72,12.09,47.59359,-54.27349
2023-03-09 10:04:00+00:00,29.0,16.86,26.0,19.72,12.09,47.59359,-54.27349
2023-03-09 10:14:00+00:00,32.0,15.94,34.0,19.72,12.09,47.59359,-54.27349
2023-03-09 10:24:00+00:00,32.0,18.15,38.0,22.5,12.09,47.59359,-54.27349
2023-03-09 10:34:00+00:00,27.0,17.62,23.0,20.1,12.09,47.59359,-54.27349
2023-03-09 10:44:00+00:00,29.0,18.59,31.0,22.44,12.09,47.59359,-54.27349
2023-03-09 10:54:00+00:00,30.0,17.62,23.0,19.46,12.09,47.59359,-54.27349
2023-03-09 11:04:00+00:00,31.0,18.5,38.0,21.7,12.09,47.59359,-54.27349
2023-03-09 11:14:00+00:00,31.0,16.64,36.0,18.99,12.25,47.59359,-54.27349
2023-03-09 11:24:00+00:00,30.0,17.65,27.0,20.05,12.25,47.59359,-54.27349
2023-03-09 11:34:00+00:00,33.0,17.71,42.0,20.5,12.25,47.59359,-54.27349
2023-03-09 11:44:00+00:00,32.0,18.51,43.0,22.33,12.25,47.59359,-54.27349
2023-03-09 11:54:00+00:00,31.0,16.25,31.0,19.98,12.25,47.59359,-54.27349
2023-03-09 12:04:00+00:00,30.0,17.11,40.0,21.26,12.25,47.59359,-54.27349
2023-03-09 12:14:00+00:00,32.0,14.66,20.0,19.15,12.97,47.59359,-54.27349
2023-03-09 12:24:00+00:00,33.0,14.96,39.0,18.96,12.97,47.59359,-54.27349
2023-03-09 12:34:00+00:00,34.0,16.65,32.0,19.22,12.97,47.59359,-54.27349
2023-03-09 12:44:00+00:00,31.0,16.41,35.0,18.96,12.97,47.59359,-54.27349
2023-03-09 12:54:00+00:00,29.0,17.19,30.0,20.51,12.97,47.59359,-54.27349
2023-03-09 13:04:00+00:00,33.0,15.42,28.0,19.19,12.97,47.59359,-54.27349
2023-03-09 13:14:00+00:00,31.0,15.75,30.0,18.63,14.32,47.59359,-54.27349
2023-03-09 13:24:00+00:00,30.0,16.93,32.0,20.15,14.32,47.59359,-54.27349
2023-03-09 13:34:00+00:00,31.0,15.24,32.0,18.3,14.32,47.59359,-54.27349
2023-03-09 13:44:00+00:00,28.0,16.07,34.0,19.64,14.32,47.59359,-54.27349
2023-03-09 13:54:00+00:00,28.0,18.98,34.0,23.64,14.32,47.59359,-54.27349
2023-03-09 14:04:00+00:00,30.0,16.81,32.0,22.58,14.32,47.59359,-54.27349
2023-03-09 14:14:00+00:00,28.0,17.58,31.0,21.01,13.92,47.59359,-54.27349
2023-03-09 14:24:00+00:00,32.0,18.88,32.0,22.26,13.92,47.59359,-54.27349
2023-03-09 14:34:00+00:00,29.0,16.7,29.0,19.68,13.92,47.59359,-54.27349
2023-03-09 14:44:00+00:00,31.0,16.07,39.0,21.2,13.92,47.59359,-54.27349
2023-03-09 14:54:00+00:00,35.0,20.65,39.0,23.75,13.92,47.59359,-54.27349
2023-03-09 15:04:00+00:00,32.0,15.71,30.0,18.48,13.92,47.59359,-54.27349
2023-03-09 15:14:01+00:00,35.0,16.89,37.0,21.09,14.0,47.59359,-54.27349
2023-03-09 15:24:01+00:00,31.0,14.35,30.0,15.43,14.0,47.59359,-54.27349
2023-03-09 15:34:01+00:00,32.0,18.04,32.0,20.85,14.0,47.59359,-54.27349
2023-03-09 15:44:01+00:00,38.0,16.82,47.0,21.65,14.0,47.59359,-54.27349
2023-03-09 15:54:01+00:00,26.0,18.06,28.0,21.64,14.0,47.59359,-54.27349
2023-03-09 16:04:01+00:00,35.0,17.13,41.0,21.02,14.0,47.59359,-54.27349
2023-03-09 16:14:00+00:00,30.0,17.53,31.0,21.1,14.24,47.59359,-54.27349
2023-03-09 16:24:00+00:00,29.0,17.15,34.0,20.21,14.24,47.59359,-54.27349
2023-03-09 16:34:00+00:00,32.0,15.08,36.0,18.65,14.24,47.59359,-54.27349
2023-03-09 16:44:00+00:00,28.0,16.58,24.0,19.64,14.24,47.59359,-54.27349
2023-03-09 16:54:00+00:00,27.0,16.65,26.0,18.97,14.24,47.59359,-54.27349
2023-03-09 17:04:00+00:00,31.0,14.9,39.0,18.6,14.24,47.59359,-54.27349
2023-03-09 17:14:00+00:00,37.0,13.94,39.0,15.15,14.48,47.59359,-54.27349
2023-03-09 17:24:00+00:00,30.0,14.6,31.0,17.81,14.48,47.59359,-54.27349
2023-03-09 17:34:00+00:00,28.0,15.71,25.0,18.12,14.48,47.59359,-54.27349
2023-03-09 17:44:00+00:00,32.0,15.1,32.0,17.64,14.48,47.59359,-54.27349
2023-03-09 17:54:00+00:00,35.0,14.25,32.0,15.91,14.48,47.59359,-54.27349
2023-03-09 18:04:00+00:00,29.0,17.13,44.0,23.32,14.48,47.59359,-54.27349
2023-03-09 18:14:00+00:00,32.0,15.33,33.0,17.24,14.32,47.59359,-54.27349
2023-03-09 18:24:00+00:00,33.0,14.63,31.0,17.68,14.32,47.59359,-54.27349
2023-03-09 18:34:00+00:00,27.0,17.48,40.0,22.67,14.32,47.59359,-54.27349
2023-03-09 18:44:00+00:00,32.0,14.03,33.0,16.12,14.32,47.59359,-54.27349
2023-03-09 18:54:00+00:00,26.0,15.67,30.0,18.43,14.32,47.59359,-54.27349
2023-03-09 19:04:00+00:00,14.0,13.28,31.0,16.65,14.32,47.59359,-54.27349
2023-03-09 19:14:00+00:00,24.0,13.31,32.0,16.52,13.6,47.59359,-54.27349
2023-03-09 19:24:00+00:00,15.0,13.39,32.0,16.85,13.6,47.59359,-54.27349
2023-03-09 19:34:00+00:00,2.0,13.5,351.0,16.6,13.6,47.59359,-54.27349
2023-03-09 19:44:00+00:00,13.0,14.4,19.0,17.61,13.6,47.59359,-54.27349
2023-03-09 19:54:00+00:00,14.0,12.21,13.0,14.11,13.6,47.59359,-54.27349
2023-03-09 20:04:00+00:00,9.0,9.94,14.0,12.85,13.6,47.59359,-54.27349
2023-03-09 20:14:00+00:00,23.0,13.61,14.0,15.98,13.44,47.59359,-54.27349
2023-03-09 20:24:00+00:00,17.0,13.75,29.0,16.45,13.44,47.59359,-54.27349
2023-03-09 20:34:00+00:00,12.0,12.7,10.0,16.07,13.44,47.59359,-54.27349
2023-03-09 20:44:00+00:00,11.0,12.91,15.0,15.23,13.44,47.59359,-54.27349
2023-03-09 20:54:00+00:00,5.0,11.91,14.0,15.05,13.44,47.59359,-54.27349
2023-03-09 21:04:00+00:00,12.0,13.9,8.0,18.34,13.44,47.59359,-54.27349
2023-03-09 21:14:00+00:00,359.0,12.63,359.0,15.22,13.21,47.59359,-54.27349
2023-03-09 21:24:00+00:00,1.0,12.29,14.0,14.98,13.21,47.59359,-54.27349
2023-03-09 21:34:00+00:00,359.0,13.75,11.0,18.13,13.21,47.59359,-54.27349
2023-03-09 21:44:00+00:00,359.0,11.12,355.0,13.1,13.21,47.59359,-54.27349
2023-03-09 21:54:00+00:00,3.0,13.6,355.0,16.54,13.21,47.59359,-54.27349
2023-03-09 22:04:00+00:00,359.0,10.75,1.0,13.63,13.21,47.59359,-54.27349
2023-03-09 22:14:00+00:00,4.0,13.44,15.0,17.27,12.57,47.59359,-54.27349
2023-03-09 22:24:00+00:00,2.0,13.69,13.0,16.75,12.57,47.59359,-54.27349
2023-03-09 22:34:00+00:00,4.0,12.84,15.0,14.89,12.57,47.59359,-54.27349
2023-03-09 22:44:00+00:00,3.0,12.11,12.0,15.36,12.57,47.59359,-54.27349
2023-03-09 22:54:00+00:00,8.0,11.79,1.0,14.07,12.57,47.59359,-54.27349
2023-03-09 23:04:00+00:00,9.0,13.75,11.0,16.38,12.57,47.59359,-54.27349
2023-03-09 23:14:00+00:00,14.0,12.79,15.0,15.07,12.33,47.59359,-54.27349
2023-03-09 23:24:00+00:00,11.0,12.85,11.0,15.5,12.33,47.59359,-54.27349
2023-03-09 23:34:00+00:00,7.0,12.81,11.0,15.96,12.33,47.59359,-54.27349
2023-03-09 23:44:00+00:00,9.0,12.3,9.0,14.52,12.33,47.59359,-54.27349
2023-03-09 23:54:00+00:00,8.0,13.07,5.0,15.37,12.33,47.59359,-54.27349
